Back to catalog

STARLINK-2550

AliveCommunicationsVLEO
NORAD 48293·PAYLOAD·🇺🇸 United States

Launched Apr 29, 2021 from Cape Canaveral Space Force Station

Loading…

Next Passes (next 24 hours)

TLE

FreshSource: CelesTrak SupGP

Epoch: Sep 14, 2026, 21:18 UTC

1 48293C 21036T   26257.88798611  .00044399  00000+0  14275-2 0  2574
2 48293  53.1580 274.9202 0001145  91.8070  93.3093 15.31686987    14

Track STARLINK-2550 in real time with AllMySat

Download on the App Store